Regional Weather Roundup
Issued by NWS

Home | Current Version | Previous Version | Text Only | Print | Product List | Glossary Off
Versions: 1 2 3 4 5 6 7 8 9 10 11 12 13 14 15 16 17 18 19 20 21 22 23 24 25 26 27 28

000
ASUS45 KBOI 270110
RWRID

IDAHO REGIONAL WEATHER ROUNDUP
NATIONAL WEATHER SERVICE BOISE ID
700 PM MDT FRI MAY 26 2017

NOTE: "FAIR" INDICATES FEW OR NO CLOUDS BELOW 12000 FEET
WITH NO SIGNIFICANT WEATHER AND/OR OBSTRUCTIONS TO VISIBILITY

IDZ012-014-270200-
SOUTHWEST IDAHO


CITY           SKY/WX    TMP DP  RH WIND       PRES   REMARKS
BOISE          MOSUNNY   72  36  26 NW15G22   29.92R
CALDWELL       SUNNY     74  37  26 W14       29.92R
MOUNTAIN HOME  MOSUNNY   64  41  42 SE21      29.96R
$$

IDZ016-017-270200-
SOUTHCENTRAL IDAHO


CITY           SKY/WX    TMP DP  RH WIND       PRES   REMARKS
BURLEY         PTSUNNY   52  42  69 S3        30.01R
JEROME         PTSUNNY   55  47  74 NW8       30.03R
TWIN FALLS     PTSUNNY   55  42  61 W7        30.02R
$$

IDZ019>023-270200-
SOUTHEAST IDAHO


CITY           SKY/WX    TMP DP  RH WIND       PRES   REMARKS
IDAHO FALLS    CLOUDY    46  40  79 CALM      30.02R
POCATELLO      CLOUDY    47  42  83 SW3       30.03S
REXBURG        CLOUDY    44  42  93 SW8       30.01S
$$

IDZ006-010-011-018-031-032-270200-
CENTRAL IDAHO MOUNTAINS


CITY           SKY/WX    TMP DP  RH WIND       PRES   REMARKS
MCCALL         MOSUNNY   62  27  26 N9        29.99R
HAILEY         PTSUNNY   52  43  71 SW7       30.04R
STANLEY          N/A     49  37  63 S8        30.06R
SALMON         SUNNY     64  30  27 E10       29.92R
CHALLIS        MOSUNNY   56  33  42 NW9       29.96R
$$

IDZ002-004-006-007-026-270200-
NORTHERN IDAHO


CITY           SKY/WX    TMP DP  RH WIND       PRES   REMARKS
LEWISTON       MOSUNNY   76  40  27 W8        29.93S
LOWELL           N/A     61  50  67 CALM      29.96R
COEUR D`ALENE  SUNNY     73  37  27 SW7       29.94S
MULLAN PASS    SUNNY     55  30  38 NW7       30.04R
$$




USA.gov is the U.S. government's official web portal to all federal, state and local government web resources and services.